Date String (YYYY-MM-DD hh:mm:ss) UTC,Instrument flags,Ambient pressure (hPa),Sample flow (lpm),Bypass flow (lpm),Sample temperature (°C),Ambient temperature (°C),ASC tube jacket temperature (°C),LED temperature (°C),Box temperature (°C),Sample RH (%),Span deviation,Mass concentration (μg/m³),Mass concentration (μg/m³),Mass concentration (μg/m³)
DateTimeUTC,F1_M11,P_M11,Q1_M11,Q2_M11,T1_M11,T2_M11,T3_M11,T4_M11,T5_M11,U1_M11,ZSPAN_M11,X0_M11,X2_M11,X1_M11
2022-03-06 09:00:00,,0823.6,5.00,0.00,21.6,22.2,00.0,30.6,23.5,12.5,0000.0,0007.04,0004.01,0003.81
2022-03-06 09:01:00,,0823.7,5.00,0.00,21.6,21.8,00.0,30.6,23.3,12.5,0000.0,0007.31,0004.02,0003.82
2022-03-06 09:02:00,,0823.7,5.00,0.00,21.5,21.4,00.0,30.6,23.1,12.5,0000.0,0007.44,0004.02,0003.83
2022-03-06 09:03:00,,0823.6,5.00,0.00,21.5,21.0,00.0,30.5,23.0,12.6,0000.0,0007.46,0004.02,0003.85
2022-03-06 09:04:00,,0823.7,5.00,0.00,21.4,20.7,00.0,30.5,22.9,12.6,0000.0,0007.42,0004.00,0003.84
2022-03-06 09:05:00,,0823.6,4.99,0.00,21.3,20.4,00.0,30.5,22.7,12.6,0000.0,0007.42,0004.01,0003.83
2022-03-06 09:06:00,,0823.6,5.02,0.00,21.2,20.3,00.0,30.5,22.7,12.7,0000.0,0007.39,0004.00,0003.82
2022-03-06 09:07:00,,0823.6,4.99,0.00,21.1,20.1,00.0,30.4,22.5,12.7,0000.0,0007.38,0003.98,0003.79
2022-03-06 09:08:00,,0823.7,5.01,0.00,21.1,20.1,00.0,30.4,22.5,12.7,0000.0,0007.61,0003.95,0003.78
2022-03-06 09:09:00,,0823.7,5.00,0.00,21.1,20.9,00.0,30.4,22.7,12.7,0000.0,0007.62,0003.93,0003.75
2022-03-06 09:10:00,,0823.7,5.00,0.00,21.3,21.9,00.0,30.4,23.1,12.6,0000.0,0007.16,0003.88,0003.72
2022-03-06 09:11:00,,0823.6,5.01,0.00,21.5,22.5,00.0,30.5,23.4,12.5,0000.0,0005.67,0003.85,0003.70
2022-03-06 09:12:00,,0823.7,4.99,0.00,21.5,22.1,00.0,30.5,23.3,12.4,0000.0,0005.40,0003.81,0003.68
2022-03-06 09:13:00,,0823.7,5.01,0.00,21.4,21.8,00.0,30.5,23.1,12.4,0000.0,0005.10,0003.77,0003.64
2022-03-06 09:14:00,,0823.6,5.00,0.00,21.4,21.5,00.0,30.5,23.0,12.4,0000.0,0005.04,0003.75,0003.61
2022-03-06 09:15:00,,0823.6,4.99,0.00,21.3,21.3,00.0,30.5,22.9,12.4,0000.0,0005.10,0003.74,0003.58
2022-03-06 09:16:00,,0823.6,5.00,0.00,21.3,20.9,00.0,30.5,22.8,12.5,0000.0,0005.05,0003.71,0003.56
2022-03-06 09:17:00,,0823.6,5.00,0.00,21.2,20.6,00.0,30.4,22.7,12.5,0000.0,0004.99,0003.70,0003.56
2022-03-06 09:18:00,,0823.6,4.99,0.00,21.2,20.3,00.0,30.4,22.6,12.6,0000.0,0004.94,0003.68,0003.55
2022-03-06 09:19:00,,0823.6,4.99,0.00,21.1,20.1,00.0,30.3,22.5,12.7,0000.0,0004.56,0003.66,0003.54
2022-03-06 09:20:00,,0823.6,5.02,0.00,21.0,20.0,00.0,30.3,22.4,12.7,0000.0,0004.28,0003.64,0003.52
2022-03-06 09:21:00,,0823.6,5.00,0.00,21.0,20.6,00.0,30.3,22.6,12.7,0000.0,0004.28,0003.62,0003.50
2022-03-06 09:22:00,,0823.6,4.99,0.00,21.2,21.7,00.0,30.4,23.0,12.6,0000.0,0004.24,0003.60,0003.48
2022-03-06 09:23:00,,0823.6,5.00,0.00,21.4,22.4,00.0,30.4,23.3,12.5,0000.0,0004.19,0003.56,0003.45
2022-03-06 09:24:00,,0823.5,4.99,0.00,21.4,22.0,00.0,30.4,23.2,12.5,0000.0,0004.23,0003.55,0003.43
2022-03-06 09:25:00,,0823.5,5.01,0.00,21.4,21.5,00.0,30.4,23.1,12.5,0000.0,0004.14,0003.52,0003.41
2022-03-06 09:26:00,,0823.5,5.00,0.00,21.3,21.0,00.0,30.4,22.9,12.5,0000.0,0004.03,0003.48,0003.39
2022-03-06 09:27:00,,0823.5,5.00,0.00,21.2,20.8,00.0,30.4,22.8,12.5,0000.0,0003.89,0003.45,0003.37
2022-03-06 09:28:00,,0823.5,5.00,0.00,21.2,20.7,00.0,30.4,22.7,12.6,0000.0,0003.86,0003.42,0003.36
2022-03-06 09:29:00,,0823.5,5.00,0.00,21.1,20.5,00.0,30.3,22.5,12.6,0000.0,0004.51,0003.42,0003.34
2022-03-06 09:30:00,,0823.5,5.00,0.00,21.0,20.3,00.0,30.3,22.5,12.6,0000.0,0004.61,0003.44,0003.35
2022-03-06 09:31:00,,0823.5,5.00,0.00,21.0,20.2,00.0,30.3,22.4,12.6,0000.0,0004.65,0003.46,0003.36
2022-03-06 09:32:00,,0823.5,5.01,0.00,21.0,20.5,00.0,30.3,22.5,12.7,0000.0,0004.61,0003.47,0003.37
2022-03-06 09:33:00,,0823.6,5.00,0.00,21.1,21.5,00.0,30.3,22.9,12.6,0000.0,0004.71,0003.51,0003.40
2022-03-06 09:34:00,,0823.6,5.01,0.00,21.3,22.4,00.0,30.3,23.2,12.5,0000.0,0004.85,0003.56,0003.44
2022-03-06 09:35:00,,0823.6,5.00,0.00,21.4,22.2,00.0,30.4,23.2,12.5,0000.0,0004.86,0003.60,0003.48
2022-03-06 09:36:00,,0823.5,4.99,0.00,21.4,21.8,00.0,30.4,23.1,12.5,0000.0,0004.92,0003.63,0003.51
2022-03-06 09:37:00,,0823.5,5.01,0.00,21.3,21.5,00.0,30.4,22.9,12.5,0000.0,0005.01,0003.67,0003.55
2022-03-06 09:38:00,,0823.5,5.00,0.00,21.2,21.2,00.0,30.4,22.8,12.5,0000.0,0005.16,0003.72,0003.59
2022-03-06 09:39:00,,0823.4,5.00,0.00,21.2,20.9,00.0,30.3,22.7,12.5,0000.0,0005.27,0003.76,0003.60
2022-03-06 09:40:00,,0823.4,5.00,0.00,21.1,20.7,00.0,30.3,22.6,12.5,0000.0,0004.69,0003.78,0003.62
2022-03-06 09:41:00,,0823.4,5.00,0.00,21.1,20.5,00.0,30.3,22.5,12.6,0000.0,0004.73,0003.79,0003.62
2022-03-06 09:42:00,,0823.4,5.00,0.00,21.0,20.6,00.0,30.3,22.5,12.6,0000.0,0004.76,0003.79,0003.62
2022-03-06 09:43:00,,0823.4,4.99,0.00,21.2,21.5,00.0,30.3,22.9,12.4,0000.0,0004.88,0003.80,0003.62
2022-03-06 09:44:00,,0823.5,5.01,0.00,21.4,22.4,00.0,30.4,23.2,12.3,0000.0,0004.86,0003.77,0003.60
2022-03-06 09:45:00,,0823.3,5.01,0.00,21.5,22.4,00.0,30.4,23.3,12.2,0000.0,0004.69,0003.71,0003.56
2022-03-06 09:46:00,,0823.3,5.00,0.00,21.5,22.0,00.0,30.4,23.2,12.1,0000.0,0004.60,0003.66,0003.52
2022-03-06 09:47:00,,0823.3,5.01,0.00,21.4,21.7,00.0,30.4,23.0,12.2,0000.0,0004.57,0003.63,0003.47
2022-03-06 09:48:00,,0823.3,4.99,0.00,21.3,21.3,00.0,30.4,22.9,12.1,0000.0,0004.48,0003.58,0003.43
2022-03-06 09:49:00,,0823.4,5.00,0.00,21.2,21.0,00.0,30.4,22.7,12.1,0000.0,0004.44,0003.55,0003.38
2022-03-06 09:50:00,,0823.3,5.00,0.00,21.2,20.8,00.0,30.4,22.6,12.2,0000.0,0004.32,0003.50,0003.34
2022-03-06 09:51:00,,0823.4,5.00,0.00,21.1,20.6,00.0,30.3,22.5,12.2,0000.0,0004.23,0003.45,0003.29
2022-03-06 09:52:00,,0823.4,5.01,0.00,21.1,21.1,00.0,30.3,22.7,12.2,0000.0,0004.16,0003.40,0003.24
2022-03-06 09:53:00,,0823.5,5.00,0.00,21.3,22.0,00.0,30.4,23.1,12.1,0000.0,0004.14,0003.38,0003.22
2022-03-06 09:54:00,,0823.5,5.01,0.00,21.5,22.7,00.0,30.4,23.4,11.9,0000.0,0004.05,0003.35,0003.19
2022-03-06 09:55:00,,0823.5,5.00,0.00,21.5,22.4,00.0,30.4,23.4,11.9,0000.0,0004.00,0003.33,0003.17
2022-03-06 09:56:00,,0823.5,4.99,0.00,21.5,22.0,00.0,30.4,23.2,11.9,0000.0,0003.99,0003.32,0003.16
2022-03-06 09:57:00,,0823.4,5.00,0.00,21.4,21.4,00.0,30.4,23.1,12.0,0000.0,0003.97,0003.31,0003.15
2022-03-06 09:58:00,,0823.4,5.00,0.00,21.4,21.1,00.0,30.4,23.0,12.0,0000.0,0003.94,0003.30,0003.14
2022-03-06 09:59:00,,0823.5,5.00,0.00,21.3,20.9,00.0,30.4,22.9,12.0,0000.0,0003.98,0003.30,0003.14
